When you browse on this site, cookies collect data to enhance your experience and personalize the content and advertising you see.
Visit our Privacy Policy to learn more. By continuing to use the site, you agree to this use of cookies and data.
  • In Hungary
  • List of Countries
  • For 7 days
  • Water Temperature
  • Satellite Maps
  • Weather Map
  • News
  • Weather Widgets
  • user-avatar
    Login

    Hourly Weather Jaworki

    Today, 19 April, Friday

    Time Temperature Precipitation Wind Pressure Humidity
    00:00 +5°C° 0 mm 1 mps 703 mmHg 82%
    01:00 +5°C° 0 mm 1 mps 702 mmHg 79%
    02:00 +5°C° 0 mm 1 mps 702 mmHg 80%
    03:00 +5°C° 0 mm 1 mps 702 mmHg 81%
    04:00 +5°C° 0 mm 1 mps 702 mmHg 81%
    05:00 +5°C° 0 mm 2 mps 703 mmHg 75%
    06:00 +7°C° 0 mm 2 mps 703 mmHg 69%
    07:00 +9°C° 0 mm 2 mps 704 mmHg 62%
    08:00 +10°C° 0 mm 3 mps 704 mmHg 57%
    09:00 +11°C° 0 mm 3 mps 704 mmHg 51%
    10:00 +12°C° 0 mm 4 mps 704 mmHg 45%
    11:00 +13°C° 0 mm 4 mps 704 mmHg 43%
    12:00 +13°C° 0 mm 4 mps 704 mmHg 41%
    13:00 +14°C° 0 mm 4 mps 704 mmHg 39%
    14:00 +13°C° 0 mm 4 mps 704 mmHg 40%
    15:00 +13°C° 0 mm 4 mps 704 mmHg 40%
    16:00 +13°C° 0 mm 4 mps 703 mmHg 41%
    17:00 +11°C° 0 mm 3 mps 703 mmHg 50%
    18:00 +8°C° 0 mm 2 mps 703 mmHg 59%
    19:00 +7°C° 0 mm 1 mps 703 mmHg 67%
    20:00 +7°C° 0 mm 1 mps 703 mmHg 70%
    21:00 +6°C° 0 mm 1 mps 703 mmHg 72%
    22:00 +4°C° 0 mm 0 mps 703 mmHg 74%
    23:00 +5°C° 0 mm 1 mps 703 mmHg 74%

    Tomorrow, 20 April, Saturday

    Time Temperature Precipitation Wind Pressure Humidity
    00:00 +5°C° 0 mm 1 mps 703 mmHg 73%
    01:00 +4°C° 0 mm 1 mps 703 mmHg 73%
    02:00 +4°C° 0 mm 1 mps 703 mmHg 73%
    03:00 +4°C° 0 mm 1 mps 703 mmHg 74%
    04:00 +4°C° 0 mm 1 mps 703 mmHg 74%
    05:00 +5°C° 0 mm 1 mps 703 mmHg 68%
    06:00 +7°C° 0 mm 1 mps 703 mmHg 62%
    07:00 +9°C° 0 mm 1 mps 703 mmHg 56%
    08:00 +11°C° 0 mm 1 mps 703 mmHg 51%
    09:00 +12°C° 0 mm 2 mps 704 mmHg 45%
    10:00 +14°C° 0 mm 2 mps 704 mmHg 40%
    11:00 +14°C° 0 mm 2 mps 703 mmHg 39%
    12:00 +15°C° 0 mm 2 mps 703 mmHg 38%
    13:00 +16°C° 0 mm 3 mps 703 mmHg 37%
    14:00 +14°C° 0 mm 3 mps 702 mmHg 38%
    15:00 +14°C° 0 mm 3 mps 702 mmHg 38%
    16:00 +14°C° 0 mm 3 mps 701 mmHg 39%
    17:00 +12°C° 0 mm 3 mps 701 mmHg 45%
    18:00 +10°C° 0 mm 2 mps 700 mmHg 50%
    19:00 +9°C° 0 mm 1 mps 700 mmHg 56%
    20:00 +8°C° 0 mm 1 mps 700 mmHg 58%
    21:00 +7°C° 0 mm 1 mps 700 mmHg 61%
    22:00 +6°C° 0 mm 1 mps 699 mmHg 63%
    23:00 +6°C° 0 mm 1 mps 699 mmHg 67%

    Day after tomorrow, 21 April, Sunday

    Time Temperature Precipitation Wind Pressure Humidity
    00:00 +5°C° 0 mm 1 mps 699 mmHg 70%
    01:00 +5°C° 0 mm 1 mps 699 mmHg 74%
    02:00 +4°C° 0 mm 1 mps 699 mmHg 77%
    03:00 +4°C° 0 mm 1 mps 698 mmHg 81%
    04:00 +4°C° 0 mm 1 mps 698 mmHg 84%
    05:00 +6°C° 0 mm 1 mps 698 mmHg 78%
    06:00 +7°C° 0 mm 1 mps 699 mmHg 72%
    07:00 +9°C° 0 mm 1 mps 699 mmHg 66%
    08:00 +9°C° 0 mm 2 mps 699 mmHg 62%
    09:00 +10°C° 0 mm 2 mps 699 mmHg 58%
    10:00 +11°C° 0 mm 3 mps 699 mmHg 54%
    11:00 +11°C° 0.1 mm 3 mps 699 mmHg 51%
    12:00 +12°C° 0.1 mm 3 mps 698 mmHg 49%
    13:00 +12°C° 0.1 mm 4 mps 698 mmHg 47%
    14:00 +12°C° 0 mm 4 mps 698 mmHg 46%
    15:00 +12°C° 0 mm 4 mps 697 mmHg 45%
    16:00 +12°C° 0 mm 4 mps 697 mmHg 44%
    17:00 +10°C° 0 mm 3 mps 696 mmHg 52%
    18:00 +8°C° 0 mm 2 mps 696 mmHg 59%
    19:00 +7°C° 0 mm 1 mps 696 mmHg 67%
    20:00 +6°C° 0 mm 1 mps 696 mmHg 71%
    21:00 +5°C° 0 mm 1 mps 696 mmHg 76%
    22:00 +3°C° 0 mm 0 mps 695 mmHg 80%
    23:00 +3°C° 0 mm 0 mps 695 mmHg 81%

    22 April, Monday

    Time Temperature Precipitation Wind Pressure Humidity
    00:00 +4°C° 0 mm 1 mps 695 mmHg 82%
    01:00 +4°C° 0 mm 1 mps 695 mmHg 82%
    02:00 +3°C° 0 mm 1 mps 695 mmHg 82%
    03:00 +3°C° 0 mm 1 mps 695 mmHg 82%
    04:00 +3°C° 0 mm 1 mps 695 mmHg 82%
    05:00 +5°C° 0 mm 1 mps 695 mmHg 76%
    06:00 +6°C° 0 mm 1 mps 696 mmHg 71%
    07:00 +8°C° 0 mm 1 mps 696 mmHg 65%
    08:00 +9°C° 0 mm 2 mps 696 mmHg 58%
    09:00 +10°C° 0 mm 2 mps 697 mmHg 52%
    10:00 +12°C° 0 mm 3 mps 697 mmHg 45%
    11:00 +12°C° 0 mm 3 mps 697 mmHg 46%
    12:00 +13°C° 0 mm 4 mps 696 mmHg 46%
    13:00 +13°C° 0 mm 4 mps 696 mmHg 46%
    14:00 +12°C° 0 mm 4 mps 696 mmHg 51%
    15:00 +12°C° 0 mm 4 mps 696 mmHg 55%
    16:00 +11°C° 0 mm 4 mps 695 mmHg 59%
    17:00 +10°C° 0.1 mm 3 mps 695 mmHg 68%
    18:00 +9°C° 0.1 mm 3 mps 695 mmHg 76%
    19:00 +7°C° 0.1 mm 2 mps 695 mmHg 85%
    20:00 +7°C° 0 mm 2 mps 695 mmHg 88%
    21:00 +7°C° 0 mm 3 mps 695 mmHg 91%
    22:00 +5°C° 0 mm 3 mps 695 mmHg 94%
    23:00 +5°C° 0 mm 3 mps 695 mmHg 93%

    23 April, Tuesday

    Time Temperature Precipitation Wind Pressure Humidity
    00:00 +5°C° 0 mm 3 mps 695 mmHg 92%
    01:00 +5°C° 0 mm 3 mps 695 mmHg 92%
    02:00 +4°C° 0 mm 3 mps 695 mmHg 91%
    03:00 +4°C° 0 mm 3 mps 695 mmHg 90%
    04:00 +3°C° 0 mm 3 mps 694 mmHg 89%
    05:00 +4°C° 0 mm 4 mps 695 mmHg 82%
    06:00 +4°C° 0 mm 4 mps 695 mmHg 75%
    07:00 +5°C° 0 mm 5 mps 695 mmHg 69%
    08:00 +6°C° 0 mm 5 mps 695 mmHg 65%
    09:00 +7°C° 0 mm 5 mps 695 mmHg 62%
    10:00 +8°C° 0 mm 5 mps 695 mmHg 58%
    11:00 +8°C° 0.1 mm 5 mps 695 mmHg 60%
    12:00 +8°C° 0.1 mm 5 mps 695 mmHg 62%
    13:00 +8°C° 0.1 mm 5 mps 695 mmHg 65%
    14:00 +7°C° 0.3 mm 5 mps 695 mmHg 69%
    15:00 +7°C° 0.3 mm 5 mps 694 mmHg 73%
    16:00 +6°C° 0.3 mm 4 mps 694 mmHg 77%
    17:00 +6°C° 0.1 mm 4 mps 694 mmHg 78%
    18:00 +5°C° 0.1 mm 4 mps 694 mmHg 80%
    19:00 +5°C° 0.1 mm 3 mps 694 mmHg 82%
    20:00 +4°C° 0 mm 3 mps 694 mmHg 83%
    21:00 +4°C° 0 mm 3 mps 694 mmHg 84%
    22:00 +4°C° 0 mm 3 mps 694 mmHg 85%
    23:00 +4°C° 0 mm 3 mps 694 mmHg 85%

    24 April, Wednesday

    Time Temperature Precipitation Wind Pressure Humidity
    00:00 +4°C° 0 mm 3 mps 694 mmHg 85%
    01:00 +4°C° 0 mm 4 mps 694 mmHg 85%
    02:00 +4°C° 0 mm 4 mps 694 mmHg 86%
    03:00 +5°C° 0 mm 4 mps 694 mmHg 86%
    04:00 +5°C° 0 mm 4 mps 694 mmHg 87%
    05:00 +5°C° 0 mm 4 mps 695 mmHg 86%
    06:00 +6°C° 0 mm 4 mps 695 mmHg 85%
    07:00 +7°C° 0 mm 4 mps 695 mmHg 83%
    08:00 +8°C° 0 mm 4 mps 695 mmHg 80%
    09:00 +8°C° 0 mm 4 mps 696 mmHg 77%
    10:00 +9°C° 0 mm 5 mps 696 mmHg 74%
    11:00 +12°C° 0 mm 5 mps 696 mmHg 70%
    12:00 +13°C° 0 mm 5 mps 696 mmHg 66%
    13:00 +14°C° 0 mm 5 mps 696 mmHg 61%
    14:00 +14°C° 0 mm 5 mps 696 mmHg 64%
    15:00 +13°C° 0 mm 5 mps 696 mmHg 67%
    16:00 +13°C° 0 mm 5 mps 696 mmHg 70%
    17:00 +11°C° 0 mm 4 mps 696 mmHg 75%
    18:00 +10°C° 0 mm 4 mps 695 mmHg 81%
    19:00 +9°C° 0 mm 3 mps 695 mmHg 87%
    20:00 +9°C° 0 mm 3 mps 695 mmHg 88%
    21:00 +9°C° 0 mm 3 mps 695 mmHg 90%
    22:00 +9°C° 0 mm 3 mps 695 mmHg 92%
    23:00 +9°C° 0 mm 3 mps 695 mmHg 91%
    Show more